This is the latest recevied weather packets stored in our database for station/object KB4MOX. If no packets are shown the sender has not sent any weather packets the latest 10 day(s).
| Time | Temp. | Humidity | Pressure | Rain* | Wind** | Luminosity | Snow |
|---|---|---|---|---|---|---|---|
| 1777645072 | 15.56° C | 74% | 1013.9 hPa | 0 mm | - | 150 W/m² | - |
| 1777644769 | 15.56° C | 74% | 1013.7 hPa | 0 mm | - | 166 W/m² | - |
| 1777644467 | 15.56° C | 77% | 1013.9 hPa | 0 mm | - | 143 W/m² | - |
| 1777644163 | 15° C | 78% | 1013.9 hPa | 0 mm | - | 141 W/m² | - |
| 1777643859 | 15° C | 78% | 1013.9 hPa | 0 mm | - | 106 W/m² | - |
| 1777643558 | 15° C | 80% | 1014.2 hPa | 0 mm | - | 83 W/m² | - |
| 1777643254 | 15° C | 83% | 1014 hPa | 0 mm | - | 83 W/m² | - |
| 1777642951 | 15° C | 85% | 1014 hPa | 0 mm | - | 50 W/m² | - |
| 1777642647 | 15° C | 85% | 1014.1 hPa | 0 mm | - | 57 W/m² | - |
| 1777642343 | 15° C | 86% | 1014 hPa | 0 mm | - | 55 W/m² | - |
| 1777642040 | 15° C | 85% | 1013.5 hPa | 0 mm | - | 73 W/m² | - |
| 1777641736 | 15° C | 87% | 1013.5 hPa | 0 mm | - | 81 W/m² | - |
| 1777641431 | 15° C | 88% | 1013.5 hPa | 0 mm | - | 85 W/m² | - |
| 1777641127 | 15° C | 89% | 1013.5 hPa | 0 mm | - | 91 W/m² | - |
| 1777640822 | 15° C | 89% | 1013.5 hPa | 0 mm | - | 62 W/m² | - |
| 1777640520 | 15° C | 87% | 1013.2 hPa | 0 mm | - | 43 W/m² | - |
| 1777640217 | 15° C | 85% | 1013.3 hPa | 0 mm | - | 46 W/m² | - |
| 1777639913 | 15° C | 85% | 1013.4 hPa | 0 mm | - | 42 W/m² | - |
| 1777639610 | 15° C | 85% | 1013.1 hPa | 0 mm | - | 53 W/m² | - |
| 1777639307 | 15° C | 84% | 1013.3 hPa | 0 mm | - | 39 W/m² | - |
| 1777639003 | 15° C | 83% | 1013.3 hPa | 0 mm | - | 37 W/m² | - |
| 1777638699 | 14.44° C | 82% | 1013.3 hPa | 0 mm | - | 29 W/m² | - |
| 1777638396 | 14.44° C | 83% | 1013.3 hPa | 0 mm | - | 27 W/m² | - |
| 1777638092 | 14.44° C | 82% | 1013.2 hPa | 0 mm | - | 40 W/m² | - |
| 1777637789 | 14.44° C | 82% | 1013 hPa | 0 mm | - | 25 W/m² | - |
* Rain latest hour (hover to see other rain measurements)
** Current wind speed in m/s (hover to see current wind gust speed)